Location: Marion Hill
(40.7303°N, 80.2959°W)
Time: 16:49:32
(UTC+00:00)

USA 307 - Pass Details

Date: 29 October 2020
Orbit: 569 x 579 km, 54.0° (Epoch: 23 November)

Event Time Altitude Azimuth Distance (km) Brightness Sun altitude
Rises 23:26:58 0° 314° (NW) 2,788 7.0 -13.1°
Reaches altitude 10° 23:29:23 10° 323° (NW) 1,885 5.9 -13.6°
Maximum altitude 23:33:21 36° 31° (NNE) 923 3.6 -14.3°
Enters shadow 23:35:05 25° 76° (ENE) 1,169 3.9 -14.7°
